Warning: Javascript must be enabled to use all the features on this page!


Page Loading - Please Wait...

* We've detected you're using a mobile device. Find our Next Generation Station Page here.
Click to hideNews Bulletins
  • Attention current WaterAlert users: NextGen WaterAlert is replacing Legacy WaterAlert. You must take action before 9/30/2022 to retain your alerts. Read more.
  • Explore the NEW USGS National Water Dashboard interactive map to access real-time water data from over 13,500 stations nationwide.
  • Full News RSS icon

Peak Streamflow for the Nation

USGS 10260950 WF MOJAVE R AB MOJAVE R FORKS RES NR HESPERIA CA

San Bernardino County, California
Hydrologic Unit Code 18090208
Latitude  34°20'20", Longitude 117°15'25" NAD27
Drainage area 70.3  square miles
Gage datum 3,025.23 feet above NAVD88
Output formats
Table
Graph
Tab-separated file
peakfq (watstore) format
Reselect output format
Water
Year
Date Gage
Height
(feet)
Stream-
flow
(cfs)
1975 1975-03-08 2.48 3246
1976 1976-02-09 5.41 1,5106
1977 1977-05-08 2.48 3026
1978 1978-02-10   11,3006
1979 1979-03-28 4.58 1,1806
1980 1980-02-16 17.45 8,3806
1981 1981-01-29 2.47 2526
1982 1982-03-17 8.15 3,2006
1983 1983-03-02 12.30 5,5006
1984 1983-12-25 3.93 1,1806
1985 1984-12-19 3.35 9546
1986 1986-02-15 1.90 3886
1987 1987-03-06 0.92 82.06
1988 1988-01-17 2.16 4876
1989 1989-02-05 1.67 2896
1990 1990-02-21 0.91 66.06
1991 1991-03-01 5.10 1,6906
1992 1992-02-12 9.45 3,9106
1993 1993-02-19 12.31 5,5006
1994 1994-03-02 5.62 1,9306
1995 1995-01-10 8.10 3,2106
1996 1996-02-20 6.63 2,4406
1997 1997-01-26 4.61 1,4706
1998 1998-02-23 16.26 7,7406
1999 1999-04-14 0.58 38.06
2000 2000-02-21 2.10 6426
2001 2001-02-13 1.62 3476
2002 2002   0.006,Bm
2003 2003-03-17 1.88 2706
2004 2003-12-25 6.22 2,0806
2005 2005-01-11 40.321 11,7002,6
2006 2006-01-02 6.86 2,4306
2007 2007-04-25 0.80 44.06
2008 2008-01-27 6.14 2,0306
2009 2009-02-16 2.39 3196
2010 2010-01-21 5.47 1,6906
2011 2010-12-22 26.001 7,0002,6
2012 2011-11-21 1.42 2086
2013 2012-11-28 0.96 89.06
2014 2014-02-28 2.95 5706
2015 2014-12-12 1.07 78.06
2016 2016-01-31 1.91 2766
2017 2017-01-22 5.62 1,4106
2018 2017-11-24 1.39 1256
2019 2019-02-14 6.16 1,6306
2020 2020-04-08 3.22 5636
2021 2021   0.006,Bm
?
  Peak Gage-Height Qualification Codes.
?
  Peak Streamflow Qualification Codes.